Regional Weather Roundup
Issued by NWS

Home | Current Version | Previous Version | Graphics & Text | Print | Product List | Glossary On
Versions: 1 2 3 4 5 6 7 8 9 10 11 12 13 14 15 16 17 18 19 20 21 22 23 24 25 26 27 28 29 30 31 32 33 34 35 36 37 38 39 40 41 42 43 44 45 46 47 48 49 50
000
ASUS43 KOAX 230402
RWRNE

WEATHER ROUNDUP FOR NEBRASKA
NATIONAL WEATHER SERVICE OMAHA NE
1000 PM CST WED NOV 22 2017

NOTES: SATELLITE DATA IS BEING USED TO AUGMENT CLOUD COVER ABOVE
       12000 FEET.
       "FAIR" INDICATES FEW OR NO CLOUDS BELOW 12,000 FEET WITH NO
       SIGNIFICANT WEATHER AND/OR OBSTRUCTIONS TO VISIBILITY.


NEZ001>004-019>022-054>056-230500-
NEBRASKA PANHANDLE

CITY           SKY/WX    TMP DP  RH WIND       PRES   REMARKS
SCOTTSBLUFF    CLEAR     43  36  76 N8        30.19R
ALLIANCE       CLOUDY    40  36  86 W12       30.15R WCI  33
CHADRON        CLOUDY    44  36  73 SW6       30.13R
GORDON         FAIR      44  35  71 W8        30.11S
KIMBALL        CLEAR     49  39  67 W16G23    30.22R
SIDNEY         CLEAR     43  36  76 W9        30.19R
$$

NEZ057>060-069>072-079>082-230500-
SOUTHWEST NEBRASKA

CITY           SKY/WX    TMP DP  RH WIND       PRES   REMARKS
NORTH PLATTE   CLEAR     36  32  85 NW5       30.09S WCI  32
IMPERIAL       CLEAR     49  37  63 W9        30.12F
LEXINGTON      CLEAR     39  32  76 W6        30.08R WCI  35
MCCOOK         CLEAR     43  36  76 SW6       30.09S
OGALLALA       CLEAR     55  41  60 NW16      30.11S
$$

NEZ005>010-023>029-035>040-094-230500-
NORTH CENTRAL NEBRASKA

CITY           SKY/WX    TMP DP  RH WIND       PRES   REMARKS
VALENTINE      CLEAR     44  35  70 W5        30.05R
AINSWORTH      CLEAR     44  36  72 W6        30.04R
BROKEN BOW     CLOUDY    36  29  75 NW3       30.06R
O`NEILL        CLEAR     44  36  73 W7        30.00R
ORD            CLEAR     33  28  81 CALM      30.03S
THEDFORD       CLEAR     45  36  69 NW3       30.09R
$$

NEZ041-046>049-061>064-073>077-083>087-230500-
SOUTH CENTRAL NEBRASKA

CITY           SKY/WX    TMP DP  RH WIND       PRES   REMARKS
GRAND ISLAND   CLOUDY    43  29  57 SW8       30.06S
AURORA         CLEAR     40  23  50 SW9       30.05S WCI  34
HASTINGS       CLOUDY    44  26  49 SW9       30.06F
HEBRON         PTCLDY    42  22  45 SW8       30.08F
HOLDREGE       CLEAR     48  34  57 SW3       30.07S
KEARNEY        CLOUDY    47  32  56 W8        30.06F
YORK           PTCLDY    39  23  52 SW10      30.05F WCI  32
$$

NEZ011>018-030>034-042>045-230500-
NORTHEAST NEBRASKA

CITY           SKY/WX    TMP DP  RH WIND       PRES   REMARKS
NORFOLK        CLOUDY    44  27  51 SW9       29.99S
ALBION         CLEAR     47  31  52 CALM      30.01S
BLAIR          CLEAR     38  22  51 S14       30.02F WCI  30
COLUMBUS       CLOUDY    42  24  49 SW8       30.03F
FREMONT        CLOUDY    39  21  49 S5        30.04R
TEKAMAH        CLEAR     33  19  56 SE7       30.03S WCI  27
WAYNE          CLEAR     36  22  57 S7        29.98F WCI  30
$$

NEZ050>053-065>068-078-088>093-230500-
SOUTHEAST NEBRASKA

CITY           SKY/WX    TMP DP  RH WIND       PRES   REMARKS
LINCOLN        CLEAR     40  21  46 S8        30.05F WCI  34
OMAHA EPPLEY   CLEAR     35  20  54 SE10      30.05F WCI  27
BEATRICE       PTCLDY    41  22  47 S12       30.08F
FALLS CITY     CLEAR     36  18  48 S10       30.10F WCI  28
NEBRASKA CITY  PTCLDY    36  20  52 S14       30.06F WCI  27
PLATTSMOUTH    PTCLDY    35  20  54 S12       30.05F WCI  27
$$

NEZ044-045-051>053-067-230500-
OMAHA AREA

CITY           SKY/WX    TMP DP  RH WIND       PRES   REMARKS
OMAHA EPPLEY   CLEAR     35  20  54 SE10      30.05F WCI  27
BLAIR          CLEAR     38  22  51 S14       30.02F WCI  30
FREMONT        CLOUDY    39  21  49 S5        30.04R
MILLARD        CLEAR     38  22  52 CALM      30.05F
OFFUTT AFB     CLEAR     34  19  55 S3        30.05F
PLATTSMOUTH    PTCLDY    35  20  54 S12       30.05F WCI  27
WAHOO          FAIR      39  21  48 SW6       30.03F WCI  35
$$



USA.gov is the U.S. government's official web portal to all federal, state and local government web resources and services.